FW8587 Weather Reports


time (UTC)temp
F
wind
direction
speed
knots
gust
knots
rain 1hr
in
rain 24hr
in
rain mn
in
humidity
%
barometer
mb
20260503223204 84 273 1.7 4.3 0.00 0.00 0.00 39 1010.7
20260503222704 85 277 1.7 5.2 0.00 0.00 0.00 40 1010.8
20260503222205 84 265 0.9 2.6 0.00 0.00 0.00 42 1010.8
20260503221707 84 233 2.6 2.6 0.00 0.00 0.00 42 1010.9
20260503221204 84 299 0.9 2.6 0.00 0.00 0.00 42 1011.0
20260503220704 84 266 1.7 2.6 0.00 0.00 0.00 41 1011.0
20260503220204 84 290 1.7 2.6 0.00 0.00 0.00 42 1011.0
20260503215705 85 295 0.9 4.3 0.00 0.00 0.00 42 1011.0
20260503215204 84 299 0.9 2.6 0.00 0.00 0.00 43 1011.1
20260503214704 84 310 1.7 2.6 0.00 0.00 0.00 44 1011.1
20260503214204 84 256 1.7 5.2 0.00 0.00 0.00 43 1011.2
20260503213704 84 297 0.9 2.6 0.00 0.00 0.00 45 1011.3
20260503213205 84 328 0.9 2.6 0.00 0.00 0.00 44 1011.3
20260503212707 84 262 1.7 2.6 0.00 0.00 0.00 43 1011.4
20260503211704 83 358 0.9 2.6 0.00 0.00 0.00 45 1011.4
20260503211204 83 276 1.7 2.6 0.00 0.00 0.00 44 1011.5
20260503210707 83 302 1.7 4.3 0.00 0.00 0.00 44 1011.6
20260503210204 83 290 1.7 2.6 0.00 0.00 0.00 45 1011.6
20260503205704 83 289 1.7 2.6 0.00 0.00 0.00 45 1011.7
20260503205204 83 273 1.7 2.6 0.00 0.00 0.00 44 1011.8
20260503204704 83 242 0.9 2.6 0.00 0.00 0.00 46 1011.8
20260503203704 82 267 1.7 6.1 0.00 0.00 0.00 46 1011.9
20260503203206 82 306 1.7 2.6 0.00 0.00 0.00 46 1011.9
20260503202704 82 232 1.7 2.6 0.00 0.00 0.00 46 1011.9
20260503202207 81 348 0.0 2.6 0.00 0.00 0.00 48 1012.0
20260503201704 81 247 0.9 2.6 0.00 0.00 0.00 47 1012.0
20260503201204 81 262 1.7 2.6 0.00 0.00 0.00 47 1012.2
20260503200204 80 288 2.6 4.3 0.00 0.00 0.00 48 1012.3
20260503195203 81 248 1.7 6.1 0.00 0.00 0.00 49 1012.4
20260503194704 80 231 0.9 2.6 0.00 0.00 0.00 50 1012.5
20260503194204 80 196 1.7 2.6 0.00 0.00 0.00 49 1012.5
20260503193705 80 261 0.9 2.6 0.00 0.00 0.00 50 1012.6
20260503193205 79 248 0.0 0.9 0.00 0.00 0.00 51 1012.6
20260503192703 78 224 0.9 5.2 0.00 0.00 0.00 49 1012.7
20260503192206 78 273 0.9 2.6 0.00 0.00 0.00 52 1012.8
20260503191703 78 224 2.6 6.1 0.00 0.00 0.00 49 1012.8
20260503191205 78 293 1.7 2.6 0.00 0.00 0.00 51 1012.8
20260503190206 78 352 0.9 2.6 0.00 0.00 0.00 54 1013.0
20260503185707 77 241 0.9 2.6 0.00 0.00 0.00 52 1013.1
20260503185205 77 244 1.7 2.6 0.00 0.00 0.00 53 1013.2
20260503184709 76 235 1.7 2.6 0.00 0.00 0.00 55 1013.2
20260503184207 76 207 0.9 4.3 0.00 0.00 0.00 55 1013.3
20260503183706 76 251 0.9 2.6 0.00 0.00 0.00 57 1013.4
20260503183205 75 285 0.9 2.6 0.00 0.00 0.00 59 1013.4
20260503182205 74 312 0.0 4.3 0.00 0.00 0.00 59 1013.5
20260503181206 73 327 0.9 2.6 0.00 0.00 0.00 61 1013.6
20260503180707 73 351 1.7 2.6 0.00 0.00 0.00 63 1013.6
20260503180207 72 0 0.0 1.7 0.00 0.00 0.00 63 1013.7
20260503175706 72 251 0.9 2.6 0.00 0.00 0.00 63 1013.7
20260503175206 71 247 0.9 2.6 0.00 0.00 0.00 65 1013.7
20260503174707 70 242 1.7 2.6 0.00 0.00 0.00 67 1013.7
20260503173707 69 287 0.9 2.6 0.00 0.00 0.00 66 1013.8
20260503171707 67 229 0.9 1.7 0.00 0.00 0.00 69 1014.0
20260503171205 67 163 0.0 1.7 0.00 0.00 0.00 70 1014.0
20260503170707 66 295 0.9 1.7 0.00 0.00 0.00 71 1014.0
20260503160208 59 284 0.0 0.0 0.00 0.00 0.00 80 1014.5
20260503150705 53 18 0.0 0.0 0.00 0.00 0.00 87 1014.5
20260503150208 53 18 0.0 0.0 0.00 0.00 0.00 88 1014.6
20260503140207 51 18 0.0 0.0 0.00 0.00 0.00 89 1014.4
20260503131205 51 18 0.0 0.0 0.00 0.00 0.00 88 1014.2
20260503130705 51 18 0.0 0.0 0.00 0.00 0.00 88 1014.2
20260503120205 52 18 0.0 0.9 0.00 0.00 0.00 86 1014.4
20260503110705 53 18 0.0 0.9 0.00 0.00 0.00 83 1014.5
20260503110206 53 18 0.0 0.0 0.00 0.00 0.00 83 1014.5
20260503100208 55 355 0.0 0.0 0.00 0.00 0.00 79 1014.7
20260503090206 57 355 0.0 0.0 0.00 0.00 0.00 76 1014.6
20260503081205 60 355 0.0 0.0 0.00 0.00 0.00 73 1014.4
20260503080205 59 355 0.0 0.9 0.00 0.00 0.00 73 1014.4
20260503072205 60 355 0.0 0.0 0.00 0.00 0.00 75 1014.8
20260503071706 60 355 0.0 0.9 0.00 0.00 0.00 76 1014.8
20260503071207 60 355 0.0 0.9 0.00 0.00 0.00 76 1014.8
20260503070709 60 355 0.0 0.0 0.00 0.00 0.00 75 1014.8
20260503070204 60 355 0.0 0.0 0.00 0.00 0.00 75 1014.8
20260503060205 61 355 0.0 0.0 0.00 0.00 0.00 72 1014.9
20260503054705 62 355 0.0 0.0 0.00 0.00 0.00 70 1014.9
20260503054204 62 355 0.0 0.0 0.00 0.00 0.00 71 1014.9
20260503053704 62 355 0.0 0.0 0.00 0.00 0.00 71 1014.8
20260503053205 62 355 0.0 0.0 0.00 0.00 0.00 70 1014.8
20260503052708 62 355 0.0 0.0 0.00 0.00 0.00 70 1014.8
20260503052213 62 355 0.0 0.9 0.00 0.00 0.00 71 1014.7
20260503051704 62 355 0.0 0.0 0.00 0.00 0.00 70 1014.7
20260503051205 62 355 0.0 0.9 0.00 0.00 0.00 68 1014.7
20260503050706 63 355 0.0 0.9 0.00 0.00 0.00 68 1014.7
20260503050205 63 355 0.0 0.0 0.00 0.00 0.00 69 1014.7
20260503045708 63 355 0.0 0.9 0.00 0.00 0.00 67 1014.7
20260503045206 63 355 0.0 0.0 0.00 0.00 0.00 66 1014.6
20260503044708 64 355 0.0 0.0 0.00 0.00 0.00 66 1014.5
20260503044206 64 355 0.0 0.0 0.00 0.00 0.00 65 1014.5
20260503043705 64 355 0.0 0.9 0.00 0.00 0.00 64 1014.4
20260503043207 64 355 0.0 0.0 0.00 0.00 0.00 65 1014.3
20260503042705 64 355 0.0 0.0 0.00 0.00 0.00 65 1014.2
20260503042205 64 355 0.0 0.0 0.00 0.00 0.00 65 1014.2
20260503041207 65 355 0.0 0.0 0.00 0.00 0.00 65 1013.9
20260503040708 66 355 0.0 0.0 0.00 0.00 0.00 62 1013.8
20260503040204 66 355 0.0 0.0 0.00 0.00 0.00 61 1013.8
20260503035705 66 355 0.0 0.0 0.00 0.00 0.00 61 1013.8
20260503035204 66 355 0.0 0.0 0.00 0.00 0.00 61 1013.7
20260503034705 66 355 0.0 0.0 0.00 0.00 0.00 61 1013.6
20260503034204 67 355 0.0 0.0 0.00 0.00 0.00 61 1013.5
20260503033706 67 355 0.0 0.0 0.00 0.00 0.00 61 1013.4
20260503033205 67 355 0.0 0.0 0.00 0.00 0.00 61 1013.3
20260503032204 68 355 0.0 0.9 0.00 0.00 0.00 59 1013.2
20260503031704 68 355 0.0 0.9 0.00 0.00 0.00 59 1013.1
20260503030207 69 66 0.0 1.7 0.00 0.00 0.00 57 1013.0
20260503025706 69 293 0.0 0.0 0.00 0.00 0.00 58 1013.0
20260503025204 69 293 0.0 0.9 0.00 0.00 0.00 58 1013.0
20260503024704 70 293 0.0 0.9 0.00 0.00 0.00 58 1013.0
20260503024205 70 293 0.0 0.0 0.00 0.00 0.00 59 1013.0
20260503023704 70 293 0.0 0.9 0.00 0.00 0.00 57 1013.0
20260503023205 70 267 0.0 0.9 0.00 0.00 0.00 58 1013.0
20260503022707 71 198 0.0 0.9 0.00 0.00 0.00 57 1012.9
20260503022205 71 355 0.0 0.9 0.00 0.00 0.00 58 1012.9
20260503021705 72 355 0.0 0.0 0.00 0.00 0.00 56 1012.9
20260503021204 72 355 0.0 0.9 0.00 0.00 0.00 57 1012.8
20260503020705 72 355 0.0 1.7 0.00 0.00 0.00 57 1012.8
20260503020205 73 210 0.0 0.9 0.00 0.00 0.00 56 1012.8
20260503015705 73 210 0.0 0.0 0.00 0.00 0.00 56 1012.9
20260503015207 73 231 0.0 0.0 0.00 0.00 0.00 55 1012.9
20260503014705 73 228 0.9 1.7 0.00 0.00 0.00 54 1012.9
20260503014207 74 257 0.0 2.6 0.00 0.00 0.00 54 1012.7
20260503013705 74 294 0.9 2.6 0.00 0.00 0.00 54 1012.8
20260503013204 74 269 0.9 2.6 0.00 0.00 0.00 52 1012.8
20260503012704 74 218 1.7 2.6 0.00 0.00 0.00 51 1012.7
20260503012207 74 255 0.9 5.2 0.00 0.00 0.00 55 1012.7
20260503011707 75 271 0.9 2.6 0.00 0.00 0.00 50 1012.8
20260503010708 75 260 0.9 2.6 0.00 0.00 0.00 52 1012.9
20260503010204 75 248 1.7 2.6 0.00 0.00 0.00 50 1013.0
20260503005705 75 322 0.9 2.6 0.00 0.00 0.00 52 1013.0
20260503005206 75 297 2.6 5.2 0.00 0.00 0.00 48 1013.1
20260503004707 75 235 1.7 2.6 0.00 0.00 0.00 49 1013.0
20260503004207 75 214 1.7 4.3 0.00 0.00 0.00 49 1013.0
20260503003704 75 241 1.7 4.3 0.00 0.00 0.00 49 1013.0
20260503003204 75 267 1.7 5.2 0.00 0.00 0.00 50 1013.0
20260503002205 75 229 0.9 2.6 0.00 0.00 0.00 50 1013.0
20260503001207 76 237 1.7 5.2 0.00 0.00 0.00 50 1013.0
20260503000704 76 226 1.7 2.6 0.00 0.00 0.00 48 1013.0
20260503000204 76 1 0.9 2.6 0.00 0.00 0.00 51 1013.1
20260502235704 75 250 1.7 4.3 0.00 0.00 0.00 50 1013.1
20260502235205 75 240 1.7 6.1 0.00 0.00 0.00 50 1013.1
20260502234704 75 248 1.7 2.6 0.00 0.00 0.00 51 1013.0
20260502234206 75 247 2.6 2.6 0.00 0.00 0.00 51 1013.1
20260502233204 75 263 2.6 5.2 0.00 0.00 0.00 50 1013.2
20260502232707 76 259 1.7 2.6 0.00 0.00 0.00 51 1013.3
20260502232204 76 255 1.7 4.3 0.00 0.00 0.00 50 1013.3
20260502231204 76 271 0.9 2.6 0.00 0.00 0.00 51 1013.5
20260502230704 76 242 1.7 4.3 0.00 0.00 0.00 50 1013.5
20260502230205 76 258 1.7 4.3 0.00 0.00 0.00 51 1013.5
20260502225704 76 242 1.7 4.3 0.00 0.00 0.00 51 1013.5
20260502225204 75 347 2.6 6.1 0.00 0.00 0.00 51 1013.5
20260502224709 75 179 1.7 5.2 0.00 0.00 0.00 52 1013.7
20260502224204 76 247 1.7 6.1 0.00 0.00 0.00 52 1013.9